Location: Observatoire
(46.1952°N, 5.3391°E)
Time: 09:11:40
(UTC+01:00)

Tiros 1 despin weight - Pass Details

Date: 21 February 2026
Orbit: 556 x 593 km, 48.2° (Epoch: 12 March)

Event Time Altitude Azimuth Distance (km) Brightness Sun altitude
Rises 19:55:24 0° 287° (WNW) 2,733 ? -18.4°
Reaches altitude 10° 19:57:46 10° 278° (W) 1,836 ? -18.8°
Maximum altitude 20:01:35 34° 213° (SSW) 915 ? -19.4°
Enters shadow 20:03:34 22° 164° (SSE) 1,237 ? -19.8°
Drops below altitude 10° 20:05:24 10° 147° (SSE) 1,835 - -20.1°
Sets 20:07:46 0° 139° (SE) 2,732 - -20.5°
